EHI
5 8 10 7 4 5 6 5 6 6 5 3 1 0 0 0 0 0 0 1 1 1 0 0 0 0 0 0 0 0 0 0 1 2 2 1 0 0 0 1 0 0 0
5 7 9 8 5 5 5 6 6 6 5 4 3 1 0 0 1 1 0 0 1 1 0 0 0 0 0 0 0 0 0 0 0 1 1 0 0 0 0 1 1 0 0
5 5 7 8 6 5 5 5 5 6 6 6 5 2 1 1 1 1 0 0 0 0 0 0 0 0 0 0 0 0 0 0 0 0 0 0 0 0 0 1 1 0 0
5 5 5 7 7 6 5 3 3 3 4 5 5 4 3 2 2 1 0 0 0 0 0 0 0 0 0 0 0 0 0 0 0 0 0 0 0 0 0 0 0 0 0
5 4 4 6 7 6 5 3 2 1 2 3 3 3 3 2 2 1 0 0 0 0 0 0 0 0 0 0 0 0 0 0 0 0 0 0 0 0 0 0 0 0 0
4 3 4 4 5 5 4 3 2 1 1 1 1 2 1 1 2 1 0 0 0 0 0 0 0 0 0 0 0 0 0 0 0 0 0 0 0 0 0 0 0 0 0
3 3 2 2 2 3 3 3 3 2 1 0 0 0 0 0 1 1 0 0 0 0 0 0 0 0 0 0 0 0 0 0 0 0 0 0 0 0 0 0 0 0 0
2 1 1 1 1 1 2 2 3 3 2 1 0 0 0 0 0 0 0 0 0 0 0 1 1 1 1 0 0 0 0 0 0 0 0 0 0 0 0 0 0 0 0
1 0 0 0 0 0 0 1 2 3 3 1 0 0 0 0 0 0 0 0 0 0 0 0 1 1 1 0 0 0 0 0 0 0 0 0 0 0 0 0 0 0 0
0 0 0 0 0 0 0 0 1 3 3 2 1 0 0 0 0 0 0 0 0 0 0 0 0 0 0 0 0 0 0 0 0 0 0 0 0 0 0 0 0 0 0
0 0 0 0 0 0 0 0 1 2 3 3 1 0 0 0 0 0 0 0 0 0 0 0 0 0 0 0 0 0 0 0 0 0 0 0 0 0 0 0 0 0 0
0 0 0 0 0 0 0 0 0 1 2 2 2 1 0 0 0 0 0 0 0 0 0 0 0 0 0 0 0 0 0 0 0 0 0 0 0 0 0 0 0 0 0
0 0 0 0 0 0 0 0 0 0 1 1 2 2 1 0 0 0 0 0 0 0 0 0 0 0 0 0 0 0 0 0 0 0 0 0 0 0 0 0 0 0 0
0 0 0 0 0 0 0 0 0 0 0 0 1 1 1 0 0 0 0 0 0 0 0 0 0 0 0 0 0 0 0 0 0 0 0 0 0 0 0 0 0 0 0
0 0 0 0 0 0 0 0 0 0 0 0 0 0 0 0 0 0 0 0 0 0 0 0 0 0 0 0 0 0 0 0 0 0 0 0 0 0 0 0 0 0 0
0 0 0 0 0 0 0 0 0 0 0 0 0 0 0 0 0 0 0 0 0 0 0 0 0 0 0 0 0 0 0 0 0 0 0 0 0 0 0 1 0 0 0
0 0 0 0 0 0 0 0 0 0 0 0 0 0 0 0 0 0 0 0 0 0 0 0 0 0 0 0 0 0 0 0 0 0 0 0 0 0 0 0 0 0 0
0 0 0 0 0 0 0 0 0 0 0 0 0 0 0 0 0 0 0 0 0 0 0 0 0 0 0 0 0 0 0 0 0 0 0 0 0 0 0 0 0 0 0
0 0 0 0 0 0 0 0 0 0 0 0 0 0 0 0 0 0 0 0 0 0 0 0 0 0 0 0 0 0 0 0 0 0 0 0 0 0 0 0 0 0 0
0 0 0 0 0 0 0 0 0 0 0 0 0 0 0 0 0 0 0 0 0 0 0 0 0 0 0 0 0 0 0 0 0 0 0 0 0 0 0 0 0 0 0
0 0 0 0 0 0 0 0 0 0 0 0 0 0 0 0 0 0 0 0 0 0 0 0 0 0 0 0 0 0 0 0 0 0 0 0 0 0 0 0 0 0 0
0 0 0 0 0 0 0 0 0 0 0 0 0 0 0 0 0 0 0 0 0 0 0 0 0 0 0 0 0 0 0 0 0 0 0 0 0 0 0 0 0 0 0
0 0 0 0 0 0 0 0 0 0 0 0 0 0 0 0 0 0 0 0 0 0 0 0 0 0 0 0 0 0 0 0 0 0 0 0 0 0 0 0 0 0 0
0 0 0 0 0 0 0 0 0 0 0 0 0 0 0 0 0 0 0 0 0 0 0 0 0 0 0 0 0 0 0 0 0 0 0 0 0 0 0 0 0 0 0
0 0 0 0 0 0 0 0 0 0 0 0 0 0 0 0 0 0 0 0 0 0 0 0 0 0 0 0 0 0 0 0 0 0 0 0 0 0 0 0 0 0 0
0 0 0 0 0 0 0 0 0 0 0 0 0 0 0 0 0 0 0 0 0 0 0 0 0 0 0 0 0 0 0 0 0 0 0 0 0 0 0 0 0 0 0
Wind_Speed
4 5 8 9 10 11 12 12 12 12 12 13 12 12 12 12 12 12 12 11 11 11 11 11 11 11 11 11 12 12 11 11 10 10 10 10 10 10 10 10 10 8 12
3 6 9 10 11 11 12 12 13 13 13 12 12 12 12 12 12 12 12 12 12 11 11 11 11 11 11 11 10 10 10 10 9 8 7 8 9 9 10 11 10 7 11
5 7 8 10 11 12 12 12 12 12 13 13 12 13 12 12 13 13 12 12 12 12 12 12 11 11 11 10 10 10 10 9 8 7 5 3 6 10 10 10 10 10 10
7 8 8 11 11 12 12 12 12 12 12 13 13 12 12 13 12 12 12 12 12 12 12 11 11 11 10 10 9 9 9 8 8 6 3 4 5 8 9 9 9 9 9
7 8 9 11 12 12 12 12 12 12 12 12 12 12 12 12 12 12 12 12 12 12 11 11 11 10 10 10 9 9 8 8 9 5 4 5 5 7 8 8 8 8 8
8 8 8 11 12 12 12 12 11 11 11 11 12 12 12 12 12 12 12 12 11 11 10 10 10 10 10 9 9 8 8 9 7 3 4 5 4 7 8 8 8 8 7
7 7 8 11 11 12 12 11 11 11 11 11 11 11 11 12 12 12 12 11 11 11 10 10 9 9 9 9 8 8 8 9 5 3 4 4 5 7 7 7 7 7 7
7 7 7 10 11 11 12 12 11 11 11 10 10 11 11 11 11 11 11 11 11 11 11 10 10 9 9 8 8 8 8 8 5 4 4 4 6 6 6 6 6 6 6
7 6 5 5 7 10 11 12 12 11 11 11 11 10 10 10 10 10 11 11 11 11 11 11 10 9 8 8 8 8 8 8 4 3 4 3 5 5 5 5 5 5 5
6 6 6 5 5 5 5 9 11 11 10 10 10 10 9 9 9 9 9 10 10 10 10 10 10 9 8 8 7 8 8 6 3 3 3 3 6 5 5 5 4 4 4
6 5 5 6 6 5 4 6 7 8 10 9 7 8 7 4 4 5 8 10 10 10 10 10 9 9 8 7 7 7 6 2 3 3 3 5 6 5 4 4 3 3 3
5 5 5 5 5 5 4 3 3 3 4 5 4 4 3 3 4 5 7 8 9 9 9 9 9 8 6 3 4 5 2 3 3 3 3 6 6 5 4 3 3 2 2
4 4 4 4 4 4 3 3 2 2 2 4 5 5 4 3 3 3 2 3 4 5 4 5 5 3 3 3 3 3 3 3 2 2 3 6 5 5 4 4 3 2 1
4 4 4 4 4 4 3 3 3 2 2 2 4 5 4 3 3 3 2 3 3 2 3 3 3 4 4 3 3 3 4 3 2 1 2 4 5 4 4 3 3 3 1
4 4 3 3 3 3 3 3 3 3 3 3 3 3 4 3 3 3 2 2 3 3 3 3 3 4 4 4 3 4 4 4 3 2 2 3 4 4 4 3 3 3 2
4 3 2 3 3 3 3 2 2 2 3 3 3 4 4 3 3 3 3 3 3 3 2 3 4 3 3 3 3 4 3 3 3 3 2 2 3 4 4 3 3 3 2
3 3 3 3 3 3 3 2 2 2 3 3 3 4 4 4 3 3 3 3 3 3 3 2 3 3 3 4 4 4 3 3 3 3 3 2 2 2 3 3 3 3 3
3 3 3 3 3 3 2 2 2 2 3 2 3 3 4 5 4 3 3 3 3 3 3 3 2 3 3 3 4 3 3 3 4 3 3 2 2 1 2 3 4 4 3
4 3 3 2 2 2 2 2 2 2 3 2 3 3 4 5 5 3 3 3 3 3 3 3 3 2 3 4 4 3 2 2 3 3 3 3 2 1 1 2 3 4 4
4 3 3 2 2 1 1 1 2 2 2 2 2 3 4 4 5 4 3 3 3 2 3 3 3 3 2 3 4 4 3 2 2 2 2 2 2 2 2 1 1 2 4
3 3 2 2 2 2 1 1 1 1 2 2 2 3 4 4 4 4 3 3 3 2 3 3 2 3 3 3 3 3 3 2 1 1 1 2 2 2 2 1 1 1 2
3 2 2 2 1 1 1 0 1 1 1 1 1 3 4 4 4 4 4 3 3 3 4 3 3 2 2 2 2 3 3 3 2 2 2 2 2 2 3 2 1 1 1
3 3 2 2 2 2 2 1 1 1 1 1 2 2 3 3 3 4 4 4 4 3 3 3 3 3 3 3 2 1 2 2 3 2 2 1 2 3 3 2 2 2 1
4 3 2 2 2 2 2 1 1 1 0 1 1 1 1 2 3 3 3 4 3 3 3 3 3 2 2 3 2 2 2 2 2 3 3 2 3 3 3 3 3 2 2
4 3 3 2 2 2 2 1 1 1 0 0 1 1 1 2 2 3 3 3 3 3 3 4 3 3 2 3 3 3 3 3 3 3 5 4 3 3 3 3 2 2 2
4 4 3 2 2 2 1 1 1 1 0 1 1 1 1 1 1 2 3 3 3 3 3 3 3 4 3 3 3 2 3 3 3 3 4 5 5 4 4 3 3 2 2
Wind_Direction
44 61 52 46 49 49 51 50 50 48 49 50 50 49 50 49 47 47 46 46 46 46 48 50 51 50 50 51 50 49 47 46 49 51 52 56 60 64 64 63 69 72 79
55 70 61 53 55 53 53 53 51 49 47 46 48 50 50 49 48 47 47 46 46 46 46 47 47 45 47 50 49 48 45 40 40 41 44 54 58 62 64 62 68 75 79
61 72 65 56 60 56 53 52 50 48 47 47 47 49 48 48 47 46 45 45 44 43 44 44 43 42 43 47 46 45 41 33 24 18 26 68 64 61 64 66 72 74 78
65 66 60 58 61 58 55 54 51 48 48 49 48 48 47 46 45 44 44 44 42 41 41 42 41 40 41 43 43 40 33 22 7 3 34 60 62 64 64 65 70 72 75
66 65 58 59 59 58 55 54 52 49 49 49 48 47 48 46 45 43 43 42 41 39 40 40 39 39 38 37 38 35 24 10 357 7 34 54 55 63 65 65 68 69 74
65 65 58 59 57 56 55 53 53 53 51 48 48 48 48 48 47 45 42 41 41 37 35 36 35 35 34 31 31 27 16 3 348 7 44 53 50 62 65 65 67 66 69
67 66 61 59 58 55 53 52 53 55 53 48 47 47 47 46 46 43 40 40 40 37 33 30 31 31 31 27 23 17 7 353 344 11 51 58 52 59 62 63 64 65 65
66 64 62 59 61 57 53 51 51 51 51 48 46 46 46 44 44 41 39 38 37 35 33 29 27 26 27 23 18 10 0 352 357 10 48 58 53 56 58 58 58 60 64
62 63 57 51 55 57 56 52 51 50 49 47 44 43 43 41 39 39 36 36 34 31 29 26 24 23 22 20 14 3 354 349 346 2 47 55 50 50 52 55 56 57 59
59 52 48 46 47 48 53 53 53 49 47 47 45 39 36 35 35 37 33 31 28 27 25 22 20 19 17 13 6 356 349 347 351 14 38 52 52 47 43 46 45 52 55
60 48 42 38 36 33 47 52 52 49 41 41 37 34 33 23 21 32 29 29 25 22 19 17 14 13 10 4 357 351 346 351 13 18 33 46 48 40 32 32 34 39 54
59 49 42 38 31 25 33 43 37 46 37 32 24 20 19 20 19 29 24 25 20 16 12 12 10 7 1 352 354 352 347 4 22 18 29 35 32 27 23 21 22 26 42
75 54 45 41 35 30 25 34 33 36 35 29 26 17 14 22 21 25 15 15 5 11 5 3 1 354 353 358 354 350 352 6 13 14 29 31 22 14 13 10 8 8 15
81 64 46 40 40 33 27 28 38 35 35 34 27 23 19 15 10 8 16 5 4 3 2 357 352 350 352 351 348 354 359 0 353 359 25 27 16 5 358 349 352 350 343
88 73 54 42 42 37 33 26 40 36 32 34 27 22 22 21 10 2 3 6 5 0 2 349 348 352 348 347 345 355 357 352 348 354 5 13 7 358 351 347 335 333 332
99 89 67 53 45 45 44 37 39 40 37 36 32 23 17 17 12 5 2 2 2 357 353 346 348 345 340 344 343 353 351 343 336 347 352 354 355 350 343 338 334 330 320
107 98 81 69 47 48 48 43 48 46 45 40 33 27 19 18 11 7 4 358 353 346 345 347 349 348 352 351 343 344 345 339 340 346 350 350 336 334 344 331 327 327 320
105 93 76 68 54 47 46 46 47 46 45 42 40 31 18 14 8 4 4 356 348 345 345 345 357 357 352 347 339 334 333 335 334 336 342 342 342 342 326 322 323 320 313
106 97 82 62 58 51 58 66 64 56 46 38 42 38 21 13 9 6 356 353 351 350 348 350 358 358 347 343 329 324 328 326 318 325 326 333 338 337 347 329 327 325 318
108 104 96 79 63 52 66 79 72 60 46 40 41 32 27 18 12 3 356 355 355 350 349 350 345 346 342 333 327 326 312 296 297 303 315 326 334 335 338 341 326 311 307
110 109 107 91 61 46 53 68 67 52 38 31 30 33 28 19 12 4 356 356 353 349 344 342 338 335 334 335 334 323 304 278 273 322 342 330 330 331 330 347 330 311 295
136 130 124 110 91 58 37 46 98 103 85 64 26 32 26 18 12 6 2 355 352 349 348 348 347 334 329 351 335 322 321 313 329 329 319 312 343 343 326 315 288 294 294
152 150 148 130 99 74 48 40 54 66 50 38 31 27 20 13 12 10 358 352 347 350 344 338 340 341 324 324 340 323 319 303 317 285 286 301 333 321 318 316 304 285 282
158 148 139 129 107 92 81 70 73 95 60 8 44 27 10 14 7 1 0 349 342 341 340 333 340 327 322 312 312 298 275 281 297 305 298 307 310 305 301 311 307 295 279
148 144 139 123 110 99 84 77 44 46 66 18 37 24 360 1 4 356 356 345 337 335 334 331 330 321 307 294 294 297 293 283 262 273 285 294 304 293 293 288 280 278 285
139 137 137 135 124 110 101 78 84 56 29 8 359 340 328 337 343 349 349 346 338 332 326 320 316 310 301 288 284 280 279 277 274 271 275 286 291 293 290 278 270 270 273